This is the latest recevied weather packets stored in our database for station/object KE8WMS. If no packets are shown the sender has not sent any weather packets the latest 10 day(s).
| Time | Temp. | Humidity | Pressure | Rain* | Wind** | Luminosity | Snow |
|---|---|---|---|---|---|---|---|
| 1778161770 | 10.56° C | 71% | 1009.9 hPa | 0 mm | - | 193 W/m² | - |
| 1778161467 | 10.56° C | 71% | 1010.1 hPa | 0 mm | - | 199 W/m² | - |
| 1778161162 | 10.56° C | 74% | 1010 hPa | 0 mm | - | 117 W/m² | - |
| 1778160858 | 10.56° C | 72% | 1010.3 hPa | 0 mm | - | 70 W/m² | - |
| 1778160557 | 10° C | 74% | 1010.1 hPa | 0 mm | - | 86 W/m² | - |
| 1778160253 | 10.56° C | 74% | 1010.2 hPa | 0 mm | - | 113 W/m² | - |
| 1778159950 | 10° C | 77% | 1010.1 hPa | 0 mm | - | 279 W/m² | - |
| 1778159647 | 9.44° C | 77% | 1010 hPa | 0 mm | - | 115 W/m² | - |
| 1778159344 | 9.44° C | 77% | 1010.4 hPa | 0 mm | - | 79 W/m² | - |
| 1778159041 | 9.44° C | 77% | 1010.3 hPa | 0 mm | - | 70 W/m² | - |
| 1778158740 | 9.44° C | 77% | 1010.4 hPa | 0 mm | - | 88 W/m² | - |
| 1778158437 | 9.44° C | 78% | 1010.1 hPa | 0 mm | - | 90 W/m² | - |
| 1778158135 | 8.89° C | 78% | 1010.1 hPa | 0 mm | - | 100 W/m² | - |
| 1778157830 | 8.89° C | 77% | 1010.2 hPa | 0 mm | - | 95 W/m² | - |
| 1778157529 | 8.89° C | 77% | 1010.1 hPa | 0 mm | - | 96 W/m² | - |
| 1778157226 | 8.89° C | 77% | 1009.8 hPa | 0 mm | - | 101 W/m² | - |
| 1778156922 | 8.33° C | 78% | 1009.9 hPa | 0 mm | - | 101 W/m² | - |
| 1778156617 | 8.33° C | 78% | 1010.1 hPa | 0 mm | - | 103 W/m² | - |
| 1778156314 | 7.78° C | 79% | 1010.1 hPa | 0 mm | - | 100 W/m² | - |
| 1778156009 | 7.78° C | 80% | 1009.9 hPa | 0 mm | - | 101 W/m² | - |
| 1778155706 | 7.78° C | 80% | 1010.1 hPa | 0 mm | - | 95 W/m² | - |
| 1778155403 | 7.78° C | 81% | 1010.2 hPa | 0 mm | - | 90 W/m² | - |
| 1778155099 | 7.22° C | 82% | 1009.8 hPa | 0 mm | - | 88 W/m² | - |
| 1778154795 | 7.22° C | 83% | 1009.6 hPa | 0 mm | - | 83 W/m² | - |
| 1778154491 | 7.22° C | 83% | 1009.8 hPa | 0 mm | - | 71 W/m² | - |
* Rain latest hour (hover to see other rain measurements)
** Current wind speed in m/s (hover to see current wind gust speed)